Tracking 29892 objects as of 21-Nov-2024
HD Live streaming from Space Station
objects crossing your sky now

CZ-6A DEB

Track CZ-6A DEB now!
10-day predictions


NORAD ID: 55004
Int'l Code: 2022-151UU
Perigee: 610.0 km
Apogee: 722.4 km
Inclination: 98.7 °
Period: 97.9 minutes
Semi major axis: 7037 km
RCS: Unknown
Launch date: November 11, 2022
Source: People's Republic of China (PRC)
Launch site: Taiyaun Space Center, China (TSC)

Note: This is SATELLITE DEBRIS
Your satellite tracking list
Your tracking list is empty




NASA's NSSDC Master Catalog

Two Line Element Set (TLE):
1 55004U 22151UU  24325.77004135  .00049733  00000-0  77392-2 0  9994
2 55004  98.6616   2.6638 0079820 219.4645 140.0730 14.70626068105915
Source of the keplerian elements: AFSPC